This is the latest recevied weather packets stored in our database for station/object SQ5LTL-2. If no packets are shown the sender has not sent any weather packets the latest 10 day(s).
| Time | Temp. | Humidity | Pressure | Rain* | Wind** | Luminosity | Snow |
|---|---|---|---|---|---|---|---|
| 1777455629 | 6.67° C | 45% | 1028.1 hPa | 0 mm | - | 783 W/m² | - |
| 1777455328 | 6.11° C | 46% | 1028 hPa | 0 mm | - | 439 W/m² | - |
| 1777455027 | 6.11° C | 45% | 1027.9 hPa | 0 mm | - | 415 W/m² | - |
| 1777454725 | 6.67° C | 44% | 1027.9 hPa | 0 mm | - | 324 W/m² | - |
| 1777454424 | 7.22° C | 43% | 1027.8 hPa | 0 mm | - | 434 W/m² | - |
| 1777454123 | 6.67° C | 45% | 1027.9 hPa | 0 mm | - | 623 W/m² | - |
| 1777453820 | 6.11° C | 46% | 1027.9 hPa | 0 mm | - | 371 W/m² | - |
| 1777453520 | 7.22° C | 45% | 1027.9 hPa | 0 mm | - | 319 W/m² | - |
| 1777453218 | 6.67° C | 45% | 1027.9 hPa | 0 mm | - | 759 W/m² | - |
| 1777452916 | 5.56° C | 46% | 1027.9 hPa | 0 mm | - | 366 W/m² | - |
| 1777452033 | 6.67° C | 45% | 1027.9 hPa | 0 mm | - | 295 W/m² | - |
| 1777451730 | 6.67° C | 45% | 1027.8 hPa | 0 mm | - | 634 W/m² | - |
| 1777451429 | 6.11° C | 47% | 1027.9 hPa | 0 mm | - | 608 W/m² | - |
| 1777451128 | 7.22° C | 48% | 1027.7 hPa | 0 mm | - | 356 W/m² | - |
| 1777450827 | 6.11° C | 48% | 1027.8 hPa | 0 mm | - | 634 W/m² | - |
| 1777450526 | 6.11° C | 47% | 1027.7 hPa | 0 mm | - | 600 W/m² | - |
| 1777450224 | 5.56° C | 48% | 1027.8 hPa | 0 mm | - | 509 W/m² | - |
| 1777449922 | 6.11° C | 47% | 1027.7 hPa | 0 mm | - | 531 W/m² | - |
| 1777449620 | 5.56° C | 48% | 1027.7 hPa | 0 mm | - | 512 W/m² | - |
| 1777449320 | 5.56° C | 47% | 1027.8 hPa | 0 mm | - | 502 W/m² | - |
| 1777449018 | 6.11° C | 46% | 1027.6 hPa | 0 mm | - | 476 W/m² | - |
| 1777448716 | 5.56° C | 47% | 1027.7 hPa | 0 mm | - | 467 W/m² | - |
| 1777448434 | 5.56° C | 49% | 1027.6 hPa | 0 mm | - | 451 W/m² | - |
| 1777448134 | 5° C | 49% | 1027.5 hPa | 0 mm | - | 441 W/m² | - |
| 1777447831 | 5.56° C | 50% | 1027.5 hPa | 0 mm | - | 438 W/m² | - |
* Rain latest hour (hover to see other rain measurements)
** Current wind speed in m/s (hover to see current wind gust speed)